Weather History for Fort Lauderdale, FL

Change the Weather History Date:

Tuesday, January 8, 2013

  Actual Average Record
Temperature  
Mean Temperature 76 °F -  
Max Temperature 82 °F 77 °F 88 °F (1973)
Min Temperature 70 °F 59 °F 36 °F (1970)
Cooling Degree Days 11    
Growing Degree Days 26 (Base 50)    
Moisture  
Dew Point 70 °F    
Average Humidity 79    
Maximum Humidity 97    
Minimum Humidity 66    
Precipitation  
Precipitation 0.12 in - - ()
Sea Level Pressure  
Sea Level Pressure 30.15 in    
Wind  
Wind Speed 8 mph (ESE)    
Max Wind Speed 17 mph    
Max Gust Speed 22 mph    
Visibility 10 miles    
Events Rain    
Averages and records for this station are not official NWS values.
T = Trace of Precipitation, MM = Missing Value Source: NWS Daily Summary

Daily Weather History Graph

Daily Weather History Graph

Search for Another Location

Airport:

Trip Planner

Search our weather history database for the weather conditions in past years. The results will help you decide how hot, cold, wet, or windy it might be!

Date:

Astronomy

Jan. 08, 2013 Rise Set
Actual Time 7:09 AM EST 5:45 PM EST
Civil Twilight 6:44 AM EST 6:10 PM EST
Nautical Twilight 6:16 AM EST 6:39 PM EST
Astronomical Twilight 5:48 AM EST 7:07 PM EST
Moon 3:42 AM EST (1/8) 2:45 PM EST (1/8)
Length of Visible Light 11h 26m
Length of Day
10h 35m
Waning Crescent, 14% of the Moon is Illuminated
Jan 8
Waning Crescent
Jan 11
New
Jan 18
First Quarter
Jan 26
Full
Feb 3
Last Quarter

Hourly Weather History & Observations

Time (EST) Temp. Heat Index Dew Point Humidity Pressure Visibility Wind Dir Wind Speed Gust Speed Precip Events Conditions
12:53 AM 70.0 °F - 68.0 °F 93% 30.12 in 10.0 mi Calm Calm - N/A   Mostly Cloudy
1:53 AM 70.0 °F - 69.1 °F 97% 30.10 in 10.0 mi Calm Calm - 0.01 in   Scattered Clouds
2:20 AM 73.4 °F - 69.8 °F 88% 30.09 in 10.0 mi East 8.1 mph - 0.02 in Rain Light Rain
2:41 AM 73.4 °F - 69.8 °F 88% 30.09 in 10.0 mi ESE 4.6 mph - 0.02 in   Scattered Clouds
2:53 AM 73.0 °F - 70.0 °F 90% 30.09 in 10.0 mi East 4.6 mph - 0.02 in   Mostly Cloudy
3:53 AM 72.0 °F - 70.0 °F 93% 30.09 in 10.0 mi SE 9.2 mph - 0.04 in Rain Light Rain
4:12 AM 73.4 °F - 69.8 °F 88% 30.08 in 10.0 mi East 5.8 mph - 0.04 in Rain Light Rain
4:53 AM 73.0 °F - 69.1 °F 87% 30.09 in 10.0 mi ESE 4.6 mph - 0.05 in   Mostly Cloudy
5:53 AM 73.0 °F - 69.1 °F 87% 30.11 in 10.0 mi East 6.9 mph - N/A   Scattered Clouds
6:53 AM 73.4 °F - 69.8 °F 88% 30.13 in 10.0 mi East 5.8 mph - N/A   Scattered Clouds
7:53 AM 73.9 °F - 70.0 °F 87% 30.16 in 10.0 mi East 5.8 mph - N/A   Clear
8:53 AM 78.1 °F - 70.0 °F 76% 30.19 in 10.0 mi ESE 10.4 mph - N/A   Scattered Clouds
9:53 AM 78.8 °F - 69.8 °F 74% 30.20 in 10.0 mi ESE 13.8 mph 19.6 mph N/A   Scattered Clouds
10:00 AM 78.8 °F - 69.8 °F 74% 30.21 in 10.0 mi ESE 12.7 mph - N/A   Mostly Cloudy
10:18 AM 78.8 °F - 69.8 °F 74% 30.20 in 10.0 mi ESE 11.5 mph - N/A   Scattered Clouds
10:53 AM 81.0 °F 84.4 °F 70.0 °F 69% 30.20 in 10.0 mi ESE 12.7 mph - N/A   Scattered Clouds
11:53 AM 81.0 °F 84.1 °F 69.1 °F 67% 30.18 in 10.0 mi SE 12.7 mph 19.6 mph N/A   Scattered Clouds
12:30 PM 80.6 °F 83.9 °F 69.8 °F 70% 30.16 in 10.0 mi ESE 12.7 mph - N/A   Mostly Cloudy
12:53 PM 80.1 °F 83.2 °F 70.0 °F 71% 30.16 in 10.0 mi ESE 15.0 mph 21.9 mph N/A   Mostly Cloudy
1:00 PM 80.6 °F 83.9 °F 69.8 °F 70% 30.15 in 10.0 mi SE 15.0 mph 21.9 mph N/A   Mostly Cloudy
1:23 PM 80.6 °F 83.9 °F 69.8 °F 70% 30.14 in 10.0 mi ESE 16.1 mph 21.9 mph N/A   Scattered Clouds
1:33 PM 82.4 °F 86.3 °F 69.8 °F 66% 30.14 in 10.0 mi ESE 16.1 mph - N/A   Mostly Cloudy
1:53 PM 80.1 °F 83.2 °F 70.0 °F 71% 30.14 in 10.0 mi ESE 17.3 mph 21.9 mph N/A   Scattered Clouds
2:00 PM 80.6 °F 84.6 °F 71.6 °F 74% 30.14 in 10.0 mi ESE 16.1 mph - N/A   Mostly Cloudy
2:08 PM 80.6 °F 83.9 °F 69.8 °F 70% 30.13 in 10.0 mi SE 12.7 mph - N/A   Mostly Cloudy
2:25 PM 80.6 °F 83.9 °F 69.8 °F 70% 30.13 in 10.0 mi ESE 15.0 mph 19.6 mph N/A   Mostly Cloudy
2:53 PM 80.1 °F 83.2 °F 70.0 °F 71% 30.14 in 10.0 mi ESE 13.8 mph - N/A   Scattered Clouds
3:53 PM 79.0 °F - 70.0 °F 74% 30.14 in 10.0 mi ESE 11.5 mph - N/A   Scattered Clouds
4:53 PM 78.1 °F - 70.0 °F 76% 30.15 in 10.0 mi ESE 13.8 mph - N/A   Scattered Clouds
5:53 PM 77.0 °F - 71.1 °F 82% 30.17 in 10.0 mi East 12.7 mph - N/A   Scattered Clouds
6:53 PM 77.0 °F - 71.1 °F 82% 30.17 in 10.0 mi East 11.5 mph - N/A   Scattered Clouds
7:46 PM 77.0 °F - 71.6 °F 83% 30.16 in 10.0 mi East 12.7 mph - N/A   Mostly Cloudy
7:53 PM 77.0 °F - 71.1 °F 82% 30.17 in 10.0 mi East 13.8 mph - N/A   Scattered Clouds
8:53 PM 77.0 °F - 71.1 °F 82% 30.17 in 10.0 mi East 13.8 mph - N/A   Clear
9:53 PM 77.0 °F - 72.0 °F 84% 30.17 in 10.0 mi ESE 13.8 mph 21.9 mph 0.00 in   Scattered Clouds
10:18 PM 77.0 °F - 71.6 °F 83% 30.17 in 10.0 mi ESE 16.1 mph 21.9 mph N/A   Overcast
10:25 PM 77.0 °F - 71.6 °F 83% 30.17 in 10.0 mi ESE 13.8 mph - N/A   Overcast
10:53 PM 77.0 °F - 70.0 °F 79% 30.18 in 10.0 mi ESE 10.4 mph - N/A   Mostly Cloudy
11:53 PM 75.9 °F - 70.0 °F 82% 30.17 in 10.0 mi ESE 10.4 mph - N/A   Mostly Cloudy